Location: Sobotiste
(48.7170°N, 17.4000°E)
Time: 22:13:28
(UTC+02:00)

ITUPSAT 1 - Pass Details

Date: 20 March 2026
Orbit: 686 x 698 km, 98.4° (Epoch: 21 April)

Event Time Altitude Azimuth Distance (km) Brightness Sun altitude
Rises 23:33:53 0° 13° (NNE) 3,071 ? -40.9°
Reaches altitude 10° 23:36:08 10° 13° (NNE) 2,149 ? -40.9°
Enters shadow 23:36:23 11° 13° (NNE) 2,051 ? -40.9°
